Flag for India Weather past 2 weeks in Balurghat, West Bengal, India

Now
93 °F

Clear.


Feels Like: 90 °F
Forecast: 82 / 109 °F
Wind: 12 mph from North

Location: Varanasi / Babatpur


UV Index: 7 (High)

Visibility: 4 mi


Pressure: 29.77 "Hg

Humidity: 21%

Dew point: 48 °F

Location of BalurghatLocation

Historic Weather in Balurghat

°F

Balurghat temperature yesterday

Maximum temperature yesterday: 97 °F (at 3:00 PM)
Minimum temperature yesterday: 72 °F (at 6:00 AM)
Average temperature yesterday: 84 °F

Past Weeks' High & Low Weather Summary

 TemperatureHumidityPressure
High104 °F (Apr 7, 1:00 PM)78% (Apr 7, 5:00 AM)29.95 "Hg (Apr 7, 5:00 AM)
Low66 °F (Apr 10, 6:00 AM)10% (Apr 10, 12:00 PM)29.65 "Hg (Apr 7, 4:00 PM)
Average87 °F35%29.78 "Hg
* Reported Apr 5 2:00 PM — Apr 20 2:00 PM, Balurghat, Weather by CustomWeather, © 2014

Note: Actual official high and low records may vary slightly from our data, if they occured in-between our weather recording intervals... More about our weather records

Advertising

Historic Weather Conditions — Data for Previous 24 hours

 ConditionsComfort  
Time TempWeatherWind HumidityBarometerVisibility
2:00 PM
Apr 20
95 °FClear.6 mph25%29.83 "Hg4 mi
1:00 PM93 °FScattered clouds.7 mph28%29.83 "Hg3 mi
12:00 PM90 °FScattered clouds.5 mph31%29.86 "Hg3 mi
11:00 AM90 °FScattered clouds.7 mph33%29.89 "Hg3 mi
10:00 AM86 °FHaze.9 mph35%29.89 "Hg3 mi
9:00 AM82 °FHaze.6 mph45%29.89 "Hg3 mi
8:00 AM77 °FHaze.3 mph61%29.89 "Hg2 mi
7:00 AM75 °FScattered clouds.No wind69%29.86 "Hg2 mi
5:00 AM73 °FPassing clouds.2 mph69%29.83 "Hg2 mi
4:00 AM73 °FHaze.5 mph69%29.80 "Hg2 mi
12:00 AM79 °FHaze.6 mph58%29.83 "Hg2 mi
11:00 PM
Apr 19
79 °FHaze.6 mph58%29.83 "Hg2 mi
10:00 PM81 °FHaze.6 mph51%29.83 "Hg2 mi
9:00 PM82 °FHaze.3 mph48%29.83 "Hg3 mi
7:00 PM86 °FPassing clouds.5 mph43%29.80 "Hg3 mi
6:00 PM86 °FPartly sunny.13 mph43%29.80 "Hg3 mi
5:00 PM90 °FScattered clouds.21 mph38%29.80 "Hg3 mi
4:00 PM95 °FScattered clouds.13 mph30%29.80 "Hg4 mi
Weather by CustomWeather, © 2014

See weather overview